[[{"header":{"parameterUnit":"m.s-1","parameterCategory":1,"la1":30.2991,"la2":30.254,"lo1":-89.0895,"lo2":-89.0444,"dy":0.0017,"dx":0.0017,"nx":28,"ny":28,"refTime":"2025-01-26T03:00:00:Z","depth":0,"parameterNumber":2,"parameterNumberName":"U-component_of_WINDS"},"data":[0,0,0,0,0,0,0,0,0,0,0,0,0,0,0,0,0,0,0,0,0,0,0,0,0,0,0,0,0,0,0,0,0,0,0,0,0,0,0,0,0,0,0,0,0,0,0,0,0,0,0,0,0,0,0,0,0,0,-3.04,-3.04,0,-3.0392,-3.0392,-3.0392,-3.0358,-3.0357,-3.0356,-3.0355,-3.0347,-3.0348,-3.0348,0,0,0,0,0,0,0,0,0,0,0,0,0,-3.0388,-3.0389,-3.04,-3.04,-3.04,-3.0392,-3.0392,-3.0392,-3.0358,-3.0357,-3.0356,-3.0355,-3.0347,-3.0348,-3.0348,0,0,0,0,0,0,0,0,0,0,0,0,0,-3.0388,-3.0389,-3.04,-3.0382,-3.0381,-3.0392,-3.0392,-3.0392,-3.0358,-3.0357,-3.0356,-3.0354,-3.0347,-3.0348,-3.0348,-3.0377,0,0,-3.0351,-3.0351,0,0,0,0,0,0,0,0,-3.0388,-3.0389,-3.0385,-3.0383,-3.0382,-3.0375,-3.0385,-3.0387,-3.0358,-3.0367,-3.0355,-3.0354,-3.0357,-3.0357,-3.0358,-3.0377,-3.0376,-3.0351,-3.0351,-3.0352,-3.0352,0,0,0,0,0,0,0,-3.0388,-3.0389,-3.0397,-3.0385,-3.0383,-3.0375,-3.0374,-3.0385,-3.0369,-3.0366,-3.0363,-3.0363,-3.0356,-3.0358,-3.0358,-3.0376,-3.0351,-3.0351,-3.0352,-3.0352,-3.0418,-3.0419,0,0,0,0,0,0,-3.0391,-3.0389,-3.0397,-3.0397,-3.0382,-3.0376,-3.0375,-3.0378,-3.0368,-3.0366,-3.0364,-3.0361,-3.0357,-3.0357,-3.0357,-3.039,-3.0352,-3.0352,-3.0353,-3.0417,-3.0418,-3.042,0,0,0,0,0,0,-3.0391,-3.0392,-3.0398,-3.0392,-3.0392,-3.0378,-3.0382,-3.0379,-3.038,-3.0367,-3.0364,-3.0368,-3.0356,-3.0356,-3.0372,-3.0389,-3.0353,-3.0353,-3.0415,-3.0417,-3.0419,-3.0455,0,0,0,0,0,0,-3.039,-3.0392,-3.0402,-3.0393,-3.0393,-3.0412,-3.0383,-3.0379,-3.0381,-3.0378,-3.037,-3.0368,-3.0355,-3.0371,-3.0373,-3.0389,-3.0354,-3.0414,-3.0416,-3.0418,-3.0452,-3.0458,-3.0463,0,0,0,0,0,-3.039,-3.0413,-3.0403,-3.0404,-3.0405,-3.0413,-3.0414,-3.0398,-3.0383,-3.0393,-3.0385,-3.0368,-3.0388,-3.0373,-3.0375,-3.0392,-3.0412,-3.0415,-3.0418,-3.045,-3.0457,-3.0463,0,0,0,0,0,0,-3.0424,-3.0411,-3.04,-3.042,-3.0418,-3.0408,-3.042,-3.0406,-3.0408,-3.0405,-3.0386,-3.0385,-3.0404,-3.04,-3.0384,-3.0419,-3.0397,-3.0401,-3.0421,-3.0427,-3.0433,-3.0432,-3.0355,0,0,0,0,0,-3.0434,-3.0441,-3.043,-3.0449,-3.0449,-3.0435,-3.0438,-3.0426,-3.0424,-3.0422,-3.0416,-3.0414,-3.0419,-3.0423,-3.0428,-3.0453,-3.045,-3.0465,-3.047,-3.0475,-3.0477,-3.049,-3.0496,-3.0429,-3.0429,-3.0429,0,0,-3.0454,-3.0448,-3.0454,-3.0456,-3.0453,-3.0461,-3.0434,-3.0444,-3.045,-3.0424,-3.0438,-3.0434,-3.0431,-3.0451,-3.046,-3.0448,-3.0496,-3.0478,-3.0482,-3.0482,-3.0494,-3.05,-3.0506,-3.0431,-3.0431,-3.043,0,0,-3.0495,-3.0492,-3.0507,-3.0505,-3.0501,-3.0492,-3.0496,-3.0488,-3.0484,-3.0498,-3.0479,-3.0487,-3.0497,-3.0495,-3.0496,-3.0539,-3.0523,-3.0541,-3.0568,-3.058,-3.0586,-3.059,-3.0605,-3.061,-3.0544,-3.0544,-3.0544,0,-3.052,-3.0532,-3.0517,-3.0528,-3.0529,-3.0507,-3.0522,-3.0521,-3.052,-3.0521,-3.0509,-3.0521,-3.0518,-3.0537,-3.0548,-3.055,-3.0553,-3.0541,-3.0586,-3.0591,-3.0595,-3.0608,-3.0614,-3.0546,-3.0546,-3.0546,-3.0545,0,-3.0563,-3.0572,-3.0585,-3.0584,-3.0587,-3.06,-3.0587,-3.0593,-3.0582,-3.0574,-3.059,-3.0585,-3.0588,-3.0593,-3.0582,-3.0611,-3.0604,-3.0589,-3.0566,-3.0603,-3.0616,-3.0621,-3.0549,-3.0548,-3.0548,-3.0547,0,0,-3.0623,-3.0614,-3.0619,-3.0618,-3.0614,-3.062,-3.0633,-3.0637,-3.0641,-3.0642,-3.0652,-3.0662,-3.0649,-3.0649,-3.0639,-3.065,-3.0684,-3.0634,-3.0634,-3.0642,-3.0715,-3.0725,-3.0731,-3.0674,-3.0675,-3.0676,-3.0715,0,-3.0661,-3.0682,-3.0669,-3.0692,-3.07,-3.068,-3.0692,-3.069,-3.0684,-3.069,-3.0684,-3.0691,-3.0673,-3.0674,-3.0684,-3.0677,-3.0698,-3.0675,-3.0683,-3.0684,-3.0683,-3.0738,-3.0748,-3.0785,-3.072,-3.0721,-3.0721,0,-3.0707,-3.071,-3.0733,-3.0728,-3.0731,-3.0741,-3.0744,-3.075,-3.0749,-3.0743,-3.0745,-3.0732,-3.0745,-3.0725,-3.0742,-3.0727,-3.073,-3.0727,-3.0728,-3.0727,-3.0703,-3.0737,-3.0797,-3.0802,-3.0729,-3.0728,-3.0728,0,-3.0747,-3.0756,-3.0772,-3.0772,-3.0766,-3.0774,-3.0772,-3.077,-3.0773,-3.0776,-3.0777,-3.0782,-3.0784,-3.0788,-3.0777,-3.0762,-3.0796,-3.0774,-3.0791,-3.0792,-3.0797,-3.0797,-3.0857,-3.0802,-3.0802,-3.0802,-3.0802,0,-3.0789,-3.0804,-3.0789,-3.0799,-3.0816,-3.0802,-3.0819,-3.0815,-3.0813,-3.0822,-3.0806,-3.0814,-3.08,-3.0807,-3.0799,-3.0814,-3.0816,-3.0812,-3.0809,-3.0812,-3.0813,-3.0813,-3.0809,-3.0804,-3.0803,-3.0803,-3.0803,0,-3.0835,-3.0826,-3.0841,-3.0835,-3.0834,-3.0847,-3.0842,-3.085,-3.0844,-3.0855,-3.0857,-3.0848,-3.0855,-3.0845,-3.0852,-3.0847,-3.0868,-3.0862,-3.0868,-3.0866,-3.0884,-3.0882,-3.0945,-3.0952,-3.0894,-3.0894,-3.0895,0,-3.0862,-3.0873,-3.0869,-3.0874,-3.0873,-3.088,-3.0884,-3.0872,-3.0876,-3.0876,-3.0885,-3.0891,-3.0895,-3.0909,-3.0903,-3.0908,-3.0902,-3.0924,-3.0902,-3.0905,-3.0901,-3.0899,-3.09,-3.0927,-3.0928,-3.0928,-3.0929,0,-3.091,-3.0906,-3.0911,-3.0915,-3.092,-3.0923,-3.0924,-3.0929,-3.0917,-3.0922,-3.093,-3.0934,-3.0941,-3.0948,-3.0952,-3.095,-3.0938,-3.0936,-3.094,-3.0943,-3.0945,-3.0943,-3.0878,-3.0934,-3.0934,-3.0933,-3.0933,-3.0933,-3.0947,-3.0956,-3.0954,-3.0961,-3.0962,-3.0964,-3.0972,-3.0967,-3.0974,-3.0978,-3.0971,-3.0981,-3.0981,-3.0985,-3.0985,-3.0993,-3.0983,-3.099,-3.0991,-3.0992,-3.0995,-3.0946,-3.0994,-3.0994,-3.0993,-3.0993,-3.0993,0,-3.0993,-3.0992,-3.0999,-3.1001,-3.1007,-3.0996,-3.0998,-3.1003,-3.1012,-3.1013,-3.1018,-3.1027,-3.1034,-3.1029,-3.1035,-3.1042,-3.1037,-3.1044,-3.1043,-3.1042,-3.1003,-3.0998,-3.1049,-3.1049,-3.1049,-3.1049,-3.1049,-3.1049,-3.1018,-3.1033,-3.1028,-3.1044,-3.1042,-3.1052,-3.1054,-3.1056,-3.1057,-3.1068,-3.1074,-3.1071,-3.1069,-3.1075,-3.1081,-3.108,-3.1082,-3.1092,-3.1088,-3.1051,-3.1045,-3.104,-3.1035,-3.1093,-3.1093,-3.1126,-3.1127,-3.1127]},{"header":{"parameterUnit":"m.s-1","parameterCategory":1,"la1":30.2991,"la2":30.254,"lo1":-89.0895,"lo2":-89.0444,"dy":0.0017,"dx":0.0017,"nx":28,"ny":28,"refTime":"2025-01-26T03:00:00:Z","depth":0,"parameterNumber":3,"parameterNumberName":"V-component_of_WINDS"},"data":[0,0,0,0,0,0,0,0,0,0,0,0,0,0,0,0,0,0,0,0,0,0,0,0,0,0,0,0,0,0,0,0,0,0,0,0,0,0,0,0,0,0,0,0,0,0,0,0,0,0,0,0,0,0,0,0,0,0,3.1916,3.1916,0,3.1927,3.1927,3.1927,3.1946,3.1946,3.1946,3.1947,3.1959,3.1959,3.1959,0,0,0,0,0,0,0,0,0,0,0,0,0,3.1914,3.1914,3.1916,3.1916,3.1916,3.1927,3.1927,3.1927,3.1945,3.1946,3.1946,3.1947,3.1959,3.1959,3.1959,0,0,0,0,0,0,0,0,0,0,0,0,0,3.1919,3.1914,3.1916,3.1927,3.1928,3.1927,3.1927,3.1927,3.1945,3.1946,3.1946,3.1947,3.1959,3.1959,3.1959,3.1949,0,0,3.1959,3.1959,0,0,0,0,0,0,0,0,3.1919,3.1919,3.1925,3.1926,3.1927,3.1935,3.1931,3.1935,3.1945,3.1939,3.1947,3.1947,3.1951,3.1952,3.1953,3.195,3.195,3.1959,3.1959,3.1959,3.1959,0,0,0,0,0,0,0,3.1919,3.1919,3.192,3.1925,3.1926,3.1932,3.1933,3.1932,3.1942,3.1939,3.1941,3.1942,3.1952,3.1953,3.1953,3.1951,3.1959,3.1959,3.1959,3.1959,3.1944,3.1944,0,0,0,0,0,0,3.1916,3.1918,3.192,3.1921,3.1924,3.1932,3.1933,3.1932,3.1942,3.1944,3.1941,3.1942,3.1952,3.1953,3.1954,3.1945,3.1959,3.1959,3.1959,3.1945,3.1944,3.1944,0,0,0,0,0,0,3.1916,3.1916,3.192,3.192,3.1921,3.1931,3.193,3.1932,3.1933,3.1943,3.1945,3.194,3.1953,3.1954,3.1951,3.1945,3.1959,3.1959,3.1945,3.1945,3.1944,3.1926,0,0,0,0,0,0,3.1916,3.1916,3.1911,3.192,3.1921,3.1915,3.193,3.1932,3.1933,3.1935,3.1943,3.1945,3.1953,3.1951,3.1951,3.1946,3.1959,3.1946,3.1945,3.1944,3.1927,3.1925,3.1923,0,0,0,0,0,3.1916,3.1905,3.1911,3.1911,3.1915,3.1915,3.1916,3.1925,3.1932,3.1929,3.1936,3.1944,3.1946,3.195,3.1951,3.1945,3.1946,3.1945,3.1944,3.1928,3.1925,3.1923,0,0,0,0,0,0,3.1895,3.1906,3.1913,3.1904,3.1909,3.1918,3.1913,3.1921,3.1924,3.1926,3.1938,3.194,3.1936,3.1941,3.1945,3.1938,3.1948,3.1947,3.1935,3.1933,3.1931,3.193,3.1959,0,0,0,0,0,3.189,3.1888,3.1898,3.189,3.1892,3.1902,3.1903,3.191,3.1915,3.1917,3.1924,3.1929,3.1932,3.1932,3.1935,3.1928,3.1932,3.1925,3.1923,3.1921,3.192,3.192,3.1918,3.1941,3.1941,3.1941,0,0,3.1878,3.1884,3.1882,3.1886,3.189,3.189,3.1904,3.1902,3.1902,3.1917,3.1915,3.1921,3.1928,3.1924,3.1923,3.1928,3.1915,3.192,3.1918,3.1919,3.1919,3.1917,3.1915,3.194,3.194,3.194,0,0,3.1857,3.186,3.1855,3.186,3.1867,3.1874,3.1873,3.1882,3.1887,3.1885,3.1897,3.1899,3.1901,3.1907,3.191,3.1895,3.1904,3.1895,3.1884,3.1884,3.1882,3.188,3.1877,3.1875,3.1895,3.1894,3.1894,0,3.1841,3.184,3.1851,3.185,3.1852,3.1867,3.1863,3.1867,3.1874,3.1876,3.1882,3.1888,3.1893,3.1892,3.1889,3.189,3.1891,3.1894,3.1881,3.188,3.1879,3.1875,3.1874,3.1893,3.1894,3.1894,3.1894,0,3.1822,3.1822,3.1817,3.1824,3.1827,3.1824,3.1836,3.1837,3.1845,3.1853,3.1853,3.1861,3.1866,3.1867,3.1874,3.1868,3.1871,3.1879,3.1888,3.1875,3.1872,3.1871,3.1892,3.1892,3.1893,3.1893,0,0,3.1786,3.1802,3.18,3.1805,3.1815,3.1816,3.1815,3.1821,3.1822,3.1828,3.1829,3.1832,3.1841,3.1844,3.1853,3.1852,3.1843,3.1861,3.1861,3.1858,3.1839,3.1833,3.1831,3.1849,3.1849,3.1849,3.1839,0,3.1767,3.1766,3.1778,3.1774,3.1775,3.1791,3.1791,3.1798,3.1806,3.1809,3.1818,3.1821,3.1831,3.1834,3.1834,3.1844,3.1839,3.1845,3.1851,3.1851,3.1849,3.183,3.1823,3.1813,3.1837,3.1837,3.1837,0,3.1745,3.175,3.1746,3.176,3.1761,3.176,3.1768,3.1771,3.1781,3.1787,3.1792,3.1803,3.1805,3.1815,3.1819,3.1823,3.1827,3.1832,3.1832,3.1833,3.1843,3.1831,3.181,3.1808,3.1835,3.1835,3.1835,0,3.172,3.1727,3.1726,3.173,3.1745,3.1745,3.1751,3.1762,3.1765,3.1773,3.1776,3.1783,3.1787,3.1794,3.1807,3.1812,3.1811,3.1821,3.1817,3.1817,3.1815,3.1815,3.1795,3.1817,3.1817,3.1817,3.1817,0,3.1698,3.1696,3.1716,3.1715,3.1714,3.1729,3.1728,3.1736,3.1746,3.1749,3.1763,3.1765,3.1782,3.1788,3.1798,3.1801,3.1803,3.1809,3.1812,3.1808,3.1807,3.181,3.1812,3.1817,3.1817,3.1817,3.1817,0,3.167,3.1683,3.1684,3.17,3.1704,3.1702,3.1716,3.1717,3.1728,3.1731,3.1733,3.1749,3.1756,3.177,3.1781,3.1788,3.179,3.1794,3.1786,3.1788,3.1784,3.1784,3.1765,3.1764,3.1786,3.1786,3.1786,0,3.1655,3.1654,3.167,3.1674,3.168,3.1684,3.1689,3.1704,3.1709,3.1722,3.1722,3.1731,3.1738,3.1749,3.1762,3.1771,3.1777,3.177,3.1778,3.1775,3.1778,3.1778,3.1779,3.1768,3.1767,3.1767,3.1767,0,3.1628,3.1636,3.1642,3.1651,3.1656,3.1664,3.1672,3.1674,3.1692,3.1697,3.1705,3.1711,3.1723,3.1732,3.1743,3.1751,3.1763,3.1764,3.1764,3.176,3.1756,3.1759,3.1782,3.1764,3.1765,3.1765,3.1765,3.1765,3.1607,3.1608,3.1621,3.1627,3.1636,3.1644,3.1647,3.1659,3.1665,3.1677,3.1686,3.1694,3.1707,3.1724,3.1731,3.1739,3.1744,3.1743,3.1743,3.1743,3.1742,3.1755,3.1741,3.1741,3.1741,3.1741,3.1741,0,3.1582,3.1592,3.1598,3.161,3.1617,3.1627,3.1638,3.1643,3.165,3.1661,3.1669,3.1679,3.1689,3.1704,3.1715,3.1718,3.1724,3.172,3.172,3.1723,3.1736,3.1735,3.1716,3.1716,3.1716,3.1716,3.1716,3.1716,3.157,3.1573,3.1582,3.159,3.16,3.1608,3.1613,3.1622,3.1632,3.1643,3.1651,3.1661,3.1675,3.1687,3.1697,3.1702,3.1706,3.1701,3.1707,3.1719,3.1721,3.1723,3.1723,3.1701,3.1701,3.1693,3.1693,3.1693]}]]